User: anonymous   Login
Location: Unspecified
(0.0000°N, 0.0000°E)
Time: 19:28:42
(UTC+00:00)
Language:

STARLINK-30567 - Orbit

View from above orbital plane
View from above orbital plane
View from above satellite
View from above satellite

Ground track
Ground track

The orbit is defined by the following mean orbital elements,

1 58067U          26145.50071382 +.00000000 +00000-0 +64942-4 0 00002
2 58067  43.0008 313.5533 0001288 277.3231  82.7474 15.27581832    04
Epoch (UTC): 25 May 2026 12:01:01
Eccentricity: 0.0001288
inclination: 43.0008°
perigee height: 482 km
apogee height: 484 km
right ascension of ascending node: 313.5533°
argument of perigee: 277.3231°
revolutions per day: 15.27581832
mean anomaly at epoch: 82.7474°

The dashed part of the orbit path shows where the satellite is in the earth's shadow,  

DLR